Big Rapids, MI

2:51 PM EST on February 14, 2016 (GMT -0500)
Roben-Hood

Weather History for KRQB - December, 2012

Change the Weather History Date:

Friday, December 21, 2012

  Actual Average Record
Temperature  
Mean Temperature 32 °F -  
Max Temperature 34 °F 32 °F 43 °F (2015)
Min Temperature 30 °F 17 °F -10 °F (1989)
Degree Days  
Heating Degree Days 33    
Moisture  
Dew Point 26 °F    
Average Humidity 81    
Maximum Humidity 96    
Minimum Humidity 69    
Precipitation  
Precipitation 0.00 in - - ()
Sea Level Pressure  
Sea Level Pressure 29.57 in    
Wind  
Wind Speed 17 mph (NNW)    
Max Wind Speed 29 mph    
Max Gust Speed 40 mph    
Visibility 5 miles    
Events Snow    
Averages and records for this station are not official NWS values.
T = Trace of Precipitation, MM = Missing Value Source: NWS Daily Summary

Daily Weather History Graph

Daily Weather History Graph

Search for Another Location

Airport or City:

Trip Planner

Search our weather history database for the weather conditions in past years. The results will help you decide how hot, cold, wet, or windy it might be!

Date:

Astronomy

Dec. 21, 2012 Rise Set
Actual Time 8:12 AM EST 5:08 PM EST
Civil Twilight 7:39 AM EST 5:40 PM EST
Nautical Twilight 7:03 AM EST 6:17 PM EST
Astronomical Twilight 6:28 AM EST 6:52 PM EST
Moon 1:02 PM EST (12/21) 1:50 AM EST (12/21)
Length of Visible Light 10h 01m
Length of Day
8h 55m
Waxing Gibbous, 64% of the Moon is Illuminated
Dec 21
Waxing Gibbous
Dec 28
Full
Jan 4
Last Quarter
Jan 11
New
Jan 18
First Quarter

Hourly Weather History & Observations

Time (EST) Temp. Windchill Dew Point Humidity Pressure Visibility Wind Dir Wind Speed Gust Speed Precip Events Conditions
12:14 AM 34.5 °F 27.3 °F 33.1 °F 94% 29.14 in 2.5 mi NNW 9.2 mph - N/A Snow Light Snow
12:34 AM 34.0 °F 27.2 °F 32.9 °F 96% 29.14 in 1.5 mi NNW 8.1 mph - N/A Snow Light Snow
12:55 AM 34.0 °F 28.0 °F 33.1 °F 96% 29.15 in 1.8 mi NNW 6.9 mph - N/A Snow Light Snow
1:14 AM 34.2 °F 26.8 °F 33.1 °F 96% 29.16 in 2.5 mi NNW 9.2 mph - N/A Snow Light Snow
1:34 AM 34.0 °F 25.5 °F 32.9 °F 96% 29.17 in 1.8 mi NNW 11.5 mph - N/A Snow Light Snow
1:54 AM 34.2 °F 24.4 °F 32.9 °F 95% 29.18 in 2.0 mi NNW 15.0 mph 18.4 mph N/A Snow Light Snow
2:14 AM 34.2 °F 24.0 °F 32.4 °F 93% 29.19 in 1.8 mi NNW 16.1 mph 21.9 mph N/A Snow Light Snow
2:35 AM 33.4 °F 22.0 °F 31.8 °F 94% 29.20 in 0.8 mi NNW 19.6 mph 25.3 mph N/A Snow Snow
2:54 AM 32.9 °F 21.0 °F 31.1 °F 93% 29.22 in 1.0 mi NNW 20.7 mph 25.3 mph N/A Snow Light Snow
3:14 AM 32.4 °F 21.3 °F 30.2 °F 92% 29.23 in 1.8 mi NNW 17.3 mph 27.6 mph N/A Snow Light Snow
3:35 AM 32.0 °F 19.8 °F 29.7 °F 91% 29.25 in 1.5 mi North 20.7 mph 31.1 mph N/A Snow Light Snow
3:54 AM 32.0 °F 21.2 °F 30.0 °F 92% 29.26 in 1.5 mi NNW 16.1 mph 26.5 mph N/A Snow Light Snow
4:14 AM 32.2 °F 20.7 °F 29.3 °F 89% 29.27 in 7.0 mi NNW 18.4 mph 33.4 mph N/A Snow Light Snow
4:35 AM 32.0 °F 21.6 °F 29.3 °F 90% 29.29 in 4.0 mi NNW 15.0 mph 23.0 mph N/A Snow Light Snow
4:54 AM 31.8 °F 19.0 °F 28.9 °F 89% 29.30 in 2.0 mi NNW 23.0 mph 34.5 mph N/A Snow Light Snow
5:14 AM 31.5 °F 19.8 °F 28.4 °F 88% 29.32 in 2.0 mi NNW 18.4 mph 27.6 mph N/A Snow Light Snow
5:35 AM 31.1 °F 16.6 °F 28.2 °F 89% 29.32 in 1.0 mi NNW 28.8 mph 38.0 mph N/A Snow Snow
5:54 AM 30.9 °F 18.4 °F 28.4 °F 90% 29.34 in 1.0 mi NNW 20.7 mph 28.8 mph N/A Snow Snow
6:14 AM 31.1 °F 17.2 °F 27.5 °F 87% 29.35 in 1.0 mi NNW 26.5 mph 34.5 mph N/A Snow Light Snow
6:35 AM 31.1 °F 17.7 °F 26.6 °F 83% 29.36 in 2.5 mi NNW 24.2 mph 34.5 mph N/A Snow Light Snow
6:54 AM 30.9 °F 18.7 °F 25.7 °F 81% 29.38 in 4.0 mi NNW 19.6 mph 29.9 mph N/A Snow Light Snow
7:14 AM 30.4 °F 18.4 °F 25.3 °F 82% 29.39 in 3.0 mi NNW 18.4 mph 31.1 mph N/A Snow Light Snow
7:35 AM 30.2 °F 17.1 °F 25.3 °F 82% 29.41 in 4.0 mi NNW 21.9 mph 27.6 mph N/A Snow Light Snow
7:54 AM 30.2 °F 16.5 °F 25.3 °F 82% 29.42 in 3.0 mi NNW 24.2 mph 29.9 mph N/A Snow Light Snow
8:14 AM 30.2 °F 18.5 °F 25.3 °F 82% 29.44 in 1.5 mi NNW 17.3 mph 25.3 mph N/A Snow Light Snow
8:35 AM 30.2 °F 16.8 °F 24.8 °F 80% 29.45 in 1.8 mi NNW 23.0 mph 29.9 mph N/A Snow Light Snow
8:54 AM 30.2 °F 15.9 °F 24.8 °F 80% 29.46 in 2.0 mi NNW 26.5 mph 32.2 mph N/A Snow Light Snow
9:14 AM 30.6 °F 16.7 °F 24.8 °F 79% 29.48 in 2.5 mi NNW 25.3 mph 36.8 mph N/A Snow Light Snow
9:34 AM 30.9 °F 18.1 °F 25.0 °F 79% 29.49 in 4.0 mi North 21.9 mph 29.9 mph N/A Snow Light Snow
9:55 AM 31.1 °F 18.6 °F 25.0 °F 78% 29.50 in 3.0 mi NNW 20.7 mph 33.4 mph N/A Snow Light Snow
10:14 AM 31.1 °F 18.3 °F 24.8 °F 77% 29.52 in 3.0 mi NNW 21.9 mph 38.0 mph N/A Snow Light Snow
10:34 AM 31.5 °F 17.6 °F 24.8 °F 76% 29.53 in 4.0 mi NNW 26.5 mph 32.2 mph N/A Snow Light Snow
10:54 AM 31.5 °F 18.2 °F 25.5 °F 79% 29.55 in 2.5 mi North 24.2 mph 32.2 mph N/A Snow Light Snow
11:14 AM 31.8 °F 20.6 °F 25.7 °F 78% 29.56 in 5.0 mi North 17.3 mph 24.2 mph N/A Snow Light Snow
11:35 AM 32.0 °F 20.8 °F 26.6 °F 80% 29.56 in 1.5 mi NNW 17.3 mph 23.0 mph N/A Snow Light Snow
11:54 AM 32.0 °F 18.1 °F 26.1 °F 79% 29.57 in 4.0 mi NNW 27.6 mph 40.3 mph N/A   Haze
12:15 PM 32.2 °F 20.7 °F 25.7 °F 77% 29.58 in 5.0 mi North 18.4 mph 33.4 mph N/A   Haze
12:34 PM 32.0 °F 19.5 °F 26.1 °F 79% 29.59 in 2.5 mi NNW 21.9 mph 33.4 mph N/A Snow Light Snow
12:54 PM 32.0 °F 20.5 °F 25.7 °F 78% 29.60 in 3.0 mi NNW 18.4 mph 32.2 mph N/A Snow Light Snow
1:14 PM 32.0 °F 20.1 °F 26.2 °F 79% 29.61 in 3.0 mi North 19.6 mph 36.8 mph N/A Snow Light Snow
1:34 PM 32.4 °F 20.0 °F 25.9 °F 77% 29.62 in 3.0 mi NNW 21.9 mph 32.2 mph N/A   Haze
1:54 PM 32.4 °F 19.4 °F 25.9 °F 77% 29.63 in 3.0 mi NNW 24.2 mph 34.5 mph N/A   Haze
2:15 PM 32.4 °F 21.3 °F 25.7 °F 76% 29.64 in 4.0 mi North 17.3 mph 34.5 mph N/A Snow Light Snow
2:34 PM 32.4 °F 20.9 °F 26.6 °F 79% 29.65 in 4.0 mi NNW 18.4 mph 27.6 mph N/A Snow Light Snow
2:54 PM 32.5 °F 20.8 °F 26.2 °F 78% 29.66 in 7.0 mi NNW 19.6 mph 31.1 mph N/A   Overcast
3:14 PM 32.9 °F 20.4 °F 25.7 °F 75% 29.68 in 5.0 mi NNW 23.0 mph 33.4 mph N/A   Haze
3:34 PM 32.5 °F 20.8 °F 25.5 °F 75% 29.69 in 4.0 mi NNW 19.6 mph 36.8 mph N/A   Haze
3:55 PM 32.4 °F 19.4 °F 25.7 °F 76% 29.71 in 7.0 mi North 24.2 mph 32.2 mph N/A   Overcast
4:14 PM 32.4 °F 20.3 °F 25.5 °F 76% 29.72 in 10.0 mi NNW 20.7 mph 27.6 mph N/A   Overcast
4:34 PM 32.4 °F 19.4 °F 25.3 °F 75% 29.74 in 5.0 mi NNW 24.2 mph 36.8 mph N/A   Haze
4:55 PM 32.2 °F 19.7 °F 25.5 °F 76% 29.76 in 10.0 mi NNW 21.9 mph 29.9 mph N/A   Overcast
5:14 PM 32.2 °F 20.0 °F 25.3 °F 76% 29.77 in 7.0 mi NNW 20.7 mph 29.9 mph N/A   Overcast
5:34 PM 32.0 °F 18.6 °F 25.2 °F 76% 29.79 in 10.0 mi NNW 25.3 mph 35.7 mph N/A   Overcast
5:55 PM 32.0 °F 20.8 °F 25.2 °F 76% 29.80 in 10.0 mi NNW 17.3 mph 26.5 mph N/A   Overcast
6:14 PM 32.0 °F 18.4 °F 25.0 °F 75% 29.82 in 7.0 mi North 26.5 mph 36.8 mph N/A   Overcast
6:34 PM 32.0 °F 18.9 °F 24.8 °F 75% 29.83 in 10.0 mi NNW 24.2 mph 33.4 mph N/A   Overcast
6:55 PM 32.0 °F 19.5 °F 23.9 °F 72% 29.84 in 7.0 mi NNW 21.9 mph 34.5 mph N/A   Overcast
7:14 PM 32.0 °F 19.2 °F 24.6 °F 74% 29.85 in 10.0 mi NNW 23.0 mph 32.2 mph N/A   Overcast
7:34 PM 32.0 °F 20.1 °F 24.1 °F 73% 29.86 in 10.0 mi NNW 19.6 mph 32.2 mph N/A   Overcast
7:54 PM 32.0 °F 21.2 °F 23.9 °F 72% 29.87 in 10.0 mi NNW 16.1 mph 25.3 mph N/A   Overcast
8:14 PM 32.0 °F 20.5 °F 24.3 °F 73% 29.88 in 10.0 mi NNW 18.4 mph 23.0 mph N/A   Overcast
8:34 PM 32.0 °F 21.6 °F 24.1 °F 73% 29.89 in 10.0 mi NNW 15.0 mph 26.5 mph N/A   Overcast
8:54 PM 32.0 °F 20.1 °F 23.7 °F 71% 29.90 in 10.0 mi NNW 19.6 mph 25.3 mph N/A   Overcast
9:14 PM 31.8 °F 19.6 °F 23.9 °F 73% 29.91 in 10.0 mi NW 20.7 mph 27.6 mph N/A   Overcast
9:34 PM 31.8 °F 20.2 °F 23.2 °F 70% 29.91 in 10.0 mi NW 18.4 mph 25.3 mph N/A   Overcast
9:54 PM 31.8 °F 20.6 °F 22.8 °F 69% 29.92 in 10.0 mi NNW 17.3 mph 27.6 mph N/A   Overcast
10:14 PM 31.5 °F 20.1 °F 23.5 °F 73% 29.92 in 10.0 mi NNW 17.3 mph 21.9 mph N/A   Overcast
10:34 PM 31.5 °F 20.5 °F 22.6 °F 70% 29.93 in 10.0 mi NNW 16.1 mph 24.2 mph N/A   Overcast
10:54 PM 30.9 °F 19.4 °F 24.4 °F 77% 29.93 in 7.0 mi NNW 17.3 mph 24.2 mph N/A   Overcast
11:14 PM 30.7 °F 20.4 °F 23.7 °F 75% 29.94 in 10.0 mi NNW 13.8 mph 25.3 mph N/A   Overcast
11:34 PM 30.7 °F 19.6 °F 23.0 °F 73% 29.95 in 10.0 mi NNW 16.1 mph 25.3 mph N/A   Overcast
11:54 PM 30.2 °F 18.5 °F 23.4 °F 76% 29.95 in 10.0 mi NNW 17.3 mph 25.3 mph N/A   Overcast